Terug naar catalogus

NOAA 16 DEB

ActiefSSO
NORAD 41202·DEBRIS·🇺🇸 United States

Gelanceerd Sep 21, 2000 vanaf Vandenberg Space Force Base

Loading…

Volgende Passages (komende 24 uur)

TLE

VerouderendSource: Space-Track

Epoch: Sep 9, 2026, 03:49 UTC

1 41202U 00055DF  26252.15939183  .00001547  00000-0  92915-3 0  9991
2 41202  98.8883 232.0271 0072028 187.9097 172.0941 14.07081669548971

Volg NOAA 16 DEB in realtime met AllMySat

Download on the App Store